Regional Weather Roundup
Issued by NWS

Home | Current Version | Previous Version | Text Only | Print | Product List | Glossary Off
Versions: 1 2 3 4 5 6 7 8 9 10 11 12 13 14 15 16 17 18 19 20 21 22 23 24 25 26 27 28 29 30 31 32 33 34 35 36 37 38 39 40 41 42 43 44 45 46 47 48 49

000
ASUS43 KDMX 181807
RWRIA

WEATHER ROUNDUP FOR IOWA
NATIONAL WEATHER SERVICE DES MOINES IA
100 PM CDT THU SEP 18 2014

NOTE: "FAIR" INDICATES FEW OR NO CLOUDS BELOW 12,000 FEET WITH NO
SIGNIFICANT WEATHER AND/OR OBSTRUCTIONS TO VISIBILITY.

* - THESE STATIONS ARE NOT NWS STATIONS...THUS NOT UNDER NWS
QUALITY CONTROL.  THEY ALSO DO NOT REPORT WEATHER SUCH
AS PRECIPITATION OR FOG.

IAZ001>003-012>014-020>022-031>034-043>046-181900-
   NORTHWEST IOWA

CITY           SKY/WX    TMP DP  RH WIND       PRES   REMARKS
CARROLL *      SUNNY     68  55  64 SE10      30.06F
CHEROKEE *     SUNNY     72  56  57 S10G18    30.04F
DENISON *      MOSUNNY   70  59  68 SE8       30.03F
LE MARS *      SUNNY     72  57  60 S14       30.02F
ORANGE CITY *  SUNNY     73  54  49 S10       30.03F
SHELDON *      SUNNY     72  57  60 S17       30.03F
SIOUX CITY     SUNNY     73  58  59 S12       30.03F
6HR MIN TEMP:  56; 6HR MAX TEMP:  73;

SPENCER        SUNNY     71  56  58 S9        30.05F
6HR MIN TEMP:  48; 6HR MAX TEMP:  71;

STORM LAKE *   SUNNY     68  59  73 SE13G21   30.06S
$$

IAZ055>058-069>071-079>083-090>094-181900-
   SOUTHWEST IOWA

CITY           SKY/WX    TMP DP  RH WIND       PRES   REMARKS
ATLANTIC *     SUNNY     70  55  60 SE10      30.05S
AUDUBON *      SUNNY     70  54  56 SE8       30.07S
CLARINDA *     MOSUNNY   68  59  73 S12       30.07S
COUNCIL BLFS * MOSUNNY   72  61  68 SE13      30.03F
CRESTON *      SUNNY     68  55  64 E6G15     30.07F
HARLAN  *      SUNNY     70  57  64 S10       30.08F
LAMONI         SUNNY     65  55  70 SE8       30.07S
6HR MIN TEMP:  55; 6HR MAX TEMP:  66;

SHENANDOAH *   MOSUNNY   72  59  64 SE13G18   30.04F
$$

IAZ047>049-059>061-072>074-084-181900-
   CENTRAL IOWA

CITY           SKY/WX    TMP DP  RH WIND       PRES   REMARKS
AMES           SUNNY     69  54  58 S13G18    30.08F
6HR MIN TEMP:  46; 6HR MAX TEMP:  69;

ANKENY *       SUNNY     68  55  64 SE12G20   30.08F
CHARITON *     MOSUNNY   68  55  64 S9G15     30.08F
DES MOINES     MOSUNNY   70  53  54 S13       30.08F
6HR MIN TEMP:  56; 6HR MAX TEMP:  70; 6HR PCP: TRACE;

GRINNELL*      SUNNY     70  54  56 SE9       30.09F
KNOXVILLE *    SUNNY     68  54  60 SE9G17    30.07S
MARSHALLTOWN   SUNNY     69  53  56 SE12      30.08F
6HR MIN TEMP:  46; 6HR MAX TEMP:  69;

PELLA *        SUNNY     71  54  55 SE7       30.09S
PERRY *          N/A     68  55  62 SE12      30.08F
$$

IAZ004>006-015-016-023>025-035-036-181900-
   NORTH CENTRAL IOWA

CITY           SKY/WX    TMP DP  RH WIND       PRES   REMARKS
ALGONA *       SUNNY     72  54  53 S10       30.07F
CLARION *        N/A     72  50  46 SE10G18   30.07F
ESTHERVILLE    SUNNY     68  56  65 S13       30.06F
6HR MIN TEMP:  45; 6HR MAX TEMP:  69;

FORT DODGE *   SUNNY     70  54  56 S9        30.08S
MASON CITY     SUNNY     71  53  52 S10       30.09F
6HR MIN TEMP:  41; 6HR MAX TEMP:  71;

FOREST CITY *  SUNNY     72  52  49 S13       30.08S
IOWA FALLS *     N/A     70  50  49 SE12G24   30.09F
$$

IAZ007>011-017>019-026>030-037>042-050>054-066-181900-
   NORTHEAST IOWA

CITY           SKY/WX    TMP DP  RH WIND       PRES   REMARKS
CEDAR RAPIDS   MOSUNNY   69  54  58 SE10      30.10F
6HR MIN TEMP:  45; 6HR MAX TEMP:  70;

CHARLES CITY * SUNNY     70  52  52 S10       30.10F
CLINTON *      SUNNY     70  54  56 E7        30.15S
DECORAH *      MOSUNNY   68  55  64 VRB3      30.11S
DUBUQUE        MOSUNNY   67  53  61 SE9       30.13F
6HR MIN TEMP:  47; 6HR MAX TEMP:  67;

MONTICELLO *   MOSUNNY   72  54  53 VRB7G14   30.11F
OELWEIN *      SUNNY     70  52  52 S8G17     30.11F
WATERLOO       SUNNY     70  52  52 SE9       30.09F
6HR MIN TEMP:  43; 6HR MAX TEMP:  70;

$$

IAZ064-065-067-068-078-181900-
   EAST CENTRAL IOWA

CITY           SKY/WX    TMP DP  RH WIND       PRES   REMARKS
DAVENPORT      SUNNY     71  50  47 SE9       30.12S
6HR MIN TEMP:  47; 6HR MAX TEMP:  71;

IOWA CITY      SUNNY     70  54  56 SE8       30.11F
6HR MIN TEMP:  46; 6HR MAX TEMP:  71;

MT. PLEASANT * MOSUNNY   73  51  45 SE10      30.09F
MUSCATINE *    MOSUNNY   73  52  46 E8        30.09F
QUAD CITIES    SUNNY     72  52  49 E7        30.10F
6HR MIN TEMP:  45; 6HR MAX TEMP:  72;

$$

IAZ062-063-075>077-085>089-095>099-181900-
   SOUTHEAST IOWA

CITY           SKY/WX    TMP DP  RH WIND       PRES   REMARKS
BURLINGTON     SUNNY     72  53  51 SE9       30.09F
6HR MIN TEMP:  49; 6HR MAX TEMP:  73;

FAIRFIELD *    MOSUNNY   70  54  56 E13       30.09S
FORT MADISON * SUNNY     73  50  43 E12       30.09F
KEOKUK *       SUNNY     72  55  56 SE9       30.07F
OSKALOOSA *      N/A     70  54  57 SE12      30.09S
CENTERVILLE *  SUNNY     68  55  64 SE5       30.10R
OTTUMWA        MOSUNNY   69  55  60 E10       30.07F
6HR MIN TEMP:  45; 6HR MAX TEMP:  70;

WASHINGTON *   SUNNY     73  54  49 VRB7G17   30.09F
$$

ABBREVIATIONS USED IN REMARKS
   TC - TEMPERATURES IN CELSIUS
  WCI - WIND CHILL INDEX
   HX - HEAT INDEX
  VSB - VISIBILITY
$$




USA.gov is the U.S. government's official web portal to all federal, state and local government web resources and services.